If you wish to contribute or participate in the discussions about articles you are invited to join SKYbrary as a registered user

 Actions

Alfonso Bonilla Aragón International Airport

From SKYbrary Wiki

SKCL /
Revision as of 14:33, 15 October 2018 by Integration.Manager (talk | contribs)
(diff) ← Older revision | Latest revision (diff) | Newer revision → (diff)
Airport
ICAO: SKCL – IATA: CLO
Summary
Name Alfonso Bonilla Aragón International Airport
Region South America and Caribbean
Territory Colombia CO.gif
Location Palmira, Valle del Cauca Department
Serving Cali
Elevation 963.778 m
3,162 ft963.778 m
Coordinates 3° 32' 38.26" N, 76° 23' 2.63" W
Runways
Designator Length Width Surface ROPS
1/19 3000 m9,842.52 ft
45 m147.638 ft
ASP yes/yes


METAR
Observation SKCL 231300Z 00000KT 4000 BR FEW020 BKN130 21/19 A3007
Station Cali / Alfonso Bonillaaragon
Date/Time 23 March 2019 13:00:00
Wind direction
Wind speed 00 kts
Lowest cloud amount few clouds
Temperature 21°C
Dew point 19°C
Humidity 88%
QNH hPa
Weather condition n/a

Alfonso Bonilla Aragón International Airport also known as Palmaseca International Airport is an airport located in Palmira, Colombia, serving Cali and its suburbs.

Climatology

Tropical savanna climate (Köppen climate classification Aw)

Maps

Terrain

Loading map...

Airport Layout

Loading map...


Accidents & Serious Incidents at or in vicinity of SKCL

None on SKYbrary